sat.trackr.live / text

‹ back to catalog

STARLINK-35408

NORAD 65859 · 2025-223F

PAYLOAD ACTIVE UNKNOWN

§ Identity

Operator
Country
US
Launch date
2025-10-03
Launch site
AFWTR
Launch vehicle
Mass (kg)
RCS (m²)

Purposes: comms

External: N2YO · Heavens-Above · Gunter

§ Orbital elements

Epoch: 2026-05-25T03:45:06.759936Z

Period
93.85 min
Inclination
53.1603°
Eccentricity
0.0000743
Mean motion
15.34410843 rev/d
Perigee alt
462.2 km
Apogee alt
463.2 km
Semi-major
6,840.8 km
B*
5.8444e-4
RAAN
298.9587°
Arg perigee
59.8557°
Mean anomaly
300.2519°
Rev number
3,591

§ Raw data

STARLINK-354081 65859U 25223F   26145.15632824  .00019428  00000+0  58444-3 0  99972 65859  53.1603 298.9587 0000743  59.8557 300.2519 15.34410843 35915

JSON: /api/v1/satellites/65859 · /tle

For live sub-satellite position, see the globe view (requires WebGL).

§ Visibility from observer

Set your observer location to see the next 7 days of passes ≥ 10°. The values pass through the URL so the page stays shareable.

No JS? Fill the form by hand. The geolocation button needs JavaScript.